This is the latest recevied weather packets stored in our database for station/object K5KVN. If no packets are shown the sender has not sent any weather packets the latest 10 day(s).
| Time | Temp. | Humidity | Pressure | Rain* | Wind** | Luminosity | Snow |
|---|---|---|---|---|---|---|---|
| 1788103900 | 31.67° C | 48% | 1018.8 hPa | 0 mm | - | - | - |
| 1788103300 | 31.11° C | 51% | 1018.7 hPa | 0 mm | - | - | - |
| 1788102699 | 30.56° C | 53% | 1018.8 hPa | 0 mm | - | - | - |
| 1788102097 | 30° C | 54% | 1018.7 hPa | 0 mm | - | - | - |
| 1788101496 | 29.44° C | 55% | 1018.8 hPa | 0 mm | - | - | - |
| 1788100898 | 28.89° C | 59% | 1018.7 hPa | 0 mm | - | - | - |
| 1788100297 | 28.33° C | 60% | 1018.7 hPa | 0 mm | - | - | - |
| 1788099757 | 27.78° C | 61% | 1018.8 hPa | 0 mm | - | - | - |
| 1788099098 | 27.22° C | 63% | 1018.7 hPa | 0 mm | - | - | - |
| 1788098497 | 26.67° C | 64% | 1018.9 hPa | 0 mm | - | - | - |
| 1788097894 | 26.11° C | 65% | 1018.8 hPa | 0 mm | - | - | - |
| 1788097294 | 25.56° C | 67% | 1018.8 hPa | 0 mm | - | - | - |
| 1788096695 | 24.44° C | 70% | 1018.7 hPa | 0 mm | - | - | - |
| 1788096092 | 22.78° C | 75% | 1018.8 hPa | 0 mm | - | - | - |
| 1788095491 | 21.67° C | 78% | 1018.7 hPa | 0 mm | - | - | - |
| 1788094888 | 21.11° C | 79% | 1018.7 hPa | 0 mm | - | - | - |
| 1788094288 | 20.56° C | 81% | 1018.7 hPa | 0 mm | - | - | - |
| 1788093687 | 20.56° C | 81% | 1018.6 hPa | 0 mm | - | - | - |
| 1788093148 | 20.56° C | 79% | 1018.6 hPa | 0 mm | - | - | - |
| 1788092484 | 20.56° C | 78% | 1018.4 hPa | 0 mm | - | - | - |
| 1788091885 | 20.56° C | 77% | 1018.3 hPa | 0 mm | - | - | - |
| 1788091344 | 21.11° C | 76% | 1018.2 hPa | 0 mm | - | - | - |
| 1788090684 | 21.11° C | 75% | 1018.2 hPa | 0 mm | - | - | - |
| 1788090084 | 21.67° C | 74% | 1018.1 hPa | 0 mm | - | - | - |
| 1788089484 | 21.67° C | 72% | 1018 hPa | 0 mm | - | - | - |
* Rain latest hour (hover to see other rain measurements)
** Current wind speed in m/s (hover to see current wind gust speed)